• Join FlightAware (Why Join?)
  • Login
  • US Flag 
10:27AM EST


 

Airport Tracker/Info


-or-


 

Live Flight TrackerFlight Track Log ✈ DAL1789 ✈ 04-May-2012 ✈ KATL - KJAX

Flight Track Log - Related Links

Times and Time Zones

All times are in EDT time to prevent confusion due to time zone crossing. See the DAL1789 flight status page for this flight to view local times or setup timezone preferences in your user account.

Time Position Orientation Groundspeed Altitude Reporting Facility
EDT Latitude Longitude Course Direction KTS MPH feet Rate Location/Type
05:46PM 33.6333 -84.4667 270° West 169 194 2,600  Level Atlanta TRACON
05:47PM 33.6333 -84.5333 270° West 237 273 4,600 2,760 Climbing Atlanta TRACON
05:48PM 33.6333 -84.6333 208° Southwest 275 316 8,200 2,700 Climbing Atlanta TRACON
05:49PM 33.5733 -84.6722 141° Southeast 298 343 9,900 960 Climbing Atlanta Center
05:50PM 33.5194 -84.6194 128° Southeast 260 299 10,000  Climbing Atlanta Center
05:51PM 33.4675 -84.5394 129° Southeast 266 306 10,000 660 Level Atlanta Center
05:52PM 33.4075 -84.4494 129° Southeast 318 366 11,400 2,280 Climbing Atlanta Center
05:53PM 33.3431 -84.3547 130° Southeast 353 406 14,600 2,640 Climbing Atlanta Center
05:54PM 33.2722 -84.2550 128° Southeast 380 437 16,700 2,100 Climbing Atlanta Center
05:55PM 33.1994 -84.1431 130° Southeast 413 475 18,800 2,100 Climbing Atlanta Center
05:56PM 33.1200 -84.0289 137° Southeast 438 504 21,000 2,040 Climbing Atlanta Center
05:57PM 33.0281 -83.9272 146° Southeast 446 513 23,000 1,500 Climbing Atlanta Center
05:58PM 32.9194 -83.8408 146° Southeast 453 521 24,000 480 Climbing Atlanta Center
05:59PM 32.8108 -83.7547 142° Southeast 464 534 24,000  Level Atlanta Center
06:01PM 32.5867 -83.5458 139° Southeast 466 536 24,000  Level Jacksonville Center
06:02PM 32.4869 -83.4442 140° Southeast 471 542 24,000  Level Jacksonville Center
06:03PM 32.3892 -83.3478 141° Southeast 465 535 24,000  Level Jacksonville Center
06:04PM 32.2872 -83.2489 139° Southeast 471 542 24,000  Level Jacksonville Center
06:05PM 32.1892 -83.1478 141° Southeast 471 542 24,000 -300 Level Jacksonville Center
06:06PM 32.0872 -83.0494 139° Southeast 471 542 23,400 -540 Descending Jacksonville Center
06:07PM 31.9892 -82.9489 140° Southeast 471 542 23,000 -240 Descending Jacksonville Center
06:08PM 31.8889 -82.8508 141° Southeast 471 542 23,000  Level Jacksonville Center
06:09PM 31.7864 -82.7533 140° Southeast 471 542 23,000  Level Jacksonville Center
06:10PM 31.6861 -82.6558 141° Southeast 471 542 23,000  Level Jacksonville Center
06:11PM 31.5878 -82.5608 148° Southeast 466 536 23,000 -600 Level Jacksonville Center
06:12PM 31.4789 -82.4808 158° South 466 536 21,800 -1,800 Descending Jacksonville Center
06:13PM 31.3639 -82.4253 157° South 452 520 19,500 -2,160 Descending Jacksonville Center
06:14PM 31.2531 -82.3700 156° South 442 509 17,500 -2,160 Descending Jacksonville Center
06:14PM 31.1944 -82.3389 158° South 420 483 16,200 -2,100 Descending Jacksonville Center
06:15PM 31.0689 -82.2789 152° Southeast 389 448 13,800 -1,740 Descending Jacksonville Center
06:17PM 30.9600 -82.2119 138° Southeast 388 447 12,000 -960 Descending Jacksonville Center
06:17PM 30.9094 -82.1589 144° Southeast 328 377 12,000 -720 Level Jacksonville Center
06:18PM 30.8444 -82.1036 147° Southeast 290 334 10,800 -1,560 Descending Jacksonville Center
06:19PM 30.7775 -82.0536 145° Southeast 283 326 8,900 -1,920 Descending Jacksonville Center
06:20PM 30.7122 -82.0008 147° Southeast 282 325 7,000 -1,800 Descending Jacksonville Center
06:21PM 30.6431 -81.9486 150° Southeast 279 321 5,300 -1,440 Descending Jacksonville Center
06:22PM 30.5800 -81.9056 158° South 265 305 4,100 -1,020 Descending Jacksonville Center
06:23PM 30.5192 -81.8772 154° Southeast 227 261 3,300 -840 Descending Jacksonville Center
06:24PM 30.4689 -81.8489 93° East 187 215 2,400 -840 Descending Jacksonville Center
06:25PM 30.4664 -81.7911 70° East 180 207 1,700 -840 Descending Jacksonville Center
06:27PM 30.4806 -81.7453 70° East 147 169 800 -780 Descending Jacksonville Center
06:28PM 30.4928 -81.7064 70° East 134 154 200 -600 Descending Jacksonville Center